Home   Weather   Bregenz   Past weeks
Flag for Austria

Past Weather in Bregenz, Vorarlberg, Austria — Yesterday and Last 2 Weeks

Now
59 °F

Cool.


Feels Like: 59 °F
Forecast: 61 / 47 °F
Wind: 2 mph from Northwest

Location: Bregenz

Current Time: Oct 18, 2019 at 7:14:25 pm

Latest Report: Oct 18, 2019 at 6:00 pm


Visibility: N/A

Pressure: 29.93 "Hg

Humidity: 80%

Dew Point: 53 °F

Location of BregenzLocation

Past Weather in Bregenz — Graph

°F

Bregenz Temperature Yesterday

Maximum temperature yesterday: 65 °F (at 2:00 pm)
Minimum temperature yesterday: 45 °F (at 5:00 am)
Average temperature yesterday: 54 °F

High & Low Weather Summary for the Past Weeks

 TemperatureHumidityPressure
High72 °F (Oct 13, 4:00 pm)97% (Oct 6, 1:00 am)30.23 "Hg (Oct 6, 1:00 am)
Low42 °F (Oct 4, 4:00 am)40% (Oct 12, 1:00 pm)29.68 "Hg (Oct 15, 12:00 pm)
Average54 °F79%30.00 "Hg
* Reported Oct 3 6:00 pm — Oct 18 6:00 pm, Bregenz. Weather by CustomWeather, © 2019

Note: Actual official high and low records may vary slightly from our data, if they occured in-between our weather recording intervals... More about our weather records

Advertising

Bregenz Weather History for the Previous 24 Hours

Scroll right to see more
 ConditionsComfort  
Time TempWeatherWind HumidityBarometerVisibility
6:00 pm
Fri, Oct 18
59 °FCool.2 mph80%29.93 "HgN/A
5:00 pm60 °FCool.1 mph76%29.91 "HgN/A
4:00 pm62 °FCool.1 mph65%29.90 "HgN/A
3:00 pm61 °FCool.1 mph63%29.91 "HgN/A
2:00 pm61 °FCool.2 mph69%29.93 "HgN/A
1:00 pm59 °FCool.2 mph74%29.95 "HgN/A
12:00 pm64 °FMild.5 mph49%29.90 "HgN/A
11:00 am63 °FMild.5 mph48%29.91 "HgN/A
10:00 am57 °FCool.2 mph72%29.95 "HgN/A
9:00 am58 °FCool.5 mph60%29.95 "HgN/A
8:00 am54 °FCool.1 mph81%29.98 "HgN/A
7:00 am55 °FCool.No wind77%29.97 "HgN/A
6:00 am55 °FCool.3 mph71%29.98 "HgN/A
5:00 am52 °FCool.1 mph85%29.99 "HgN/A
4:00 am52 °FCool.2 mph88%29.98 "HgN/A
3:00 am53 °FCool.1 mph84%30.00 "HgN/A
2:00 am53 °FCool.1 mph84%30.01 "HgN/A
1:00 am54 °FCool.2 mph83%30.02 "HgN/A
12:00 am55 °FCool.2 mph80%30.02 "HgN/A
11:00 pm
Thu, Oct 17
54 °FCool.2 mph83%30.03 "HgN/A
10:00 pm54 °FCool.2 mph83%30.02 "HgN/A
9:00 pm54 °FCool.2 mph84%30.02 "HgN/A
8:00 pm54 °FCool.2 mph84%30.01 "HgN/A
7:00 pm55 °FCool.1 mph83%29.98 "HgN/A
Weather by CustomWeather, © 2019

See weather overview